Location: Newark
(48.1236°N, 0.7169°W)
Time: 10:09:52
(UTC+00:00)

Envisat - Pass Details

Date: 25 November 2019
Orbit: 764 x 766 km, 98.1° (Epoch: 10 December)

Event Time Altitude Azimuth Distance (km) Brightness Sun altitude
Rises 18:33:09 0° 185° (S) 3,219 6.4 -22.4°
Reaches altitude 10° 18:35:34 10° 193° (SSW) 2,298 5.7 -22.8°
Maximum altitude 18:40:19 40° 263° (W) 1,117 4.3 -23.6°
Drops below altitude 10° 18:45:07 10° 333° (NNW) 2,313 5.7 -24.4°
Sets 18:47:34 0° 341° (NNW) 3,244 6.4 -24.8°
